#timestamp,LO_Frequency,Hit,StdDev 
1589504415.2,286046999.3,N
1589504435.1,286046997.0,N
1589504436.0,286046997.0,N
1589504455.8,286046998.6,N
1589504475.6,286047000.4,N
1589504495.5,286047001.5,N
1589504515.3,286047001.6,N
1589504535.2,286047003.2,N
1589504555.9,286047001.5,N
1589504575.7,286047002.4,N
1589504595.6,286047000.7,N
1589504615.4,286047000.6,N
1589504635.3,286047001.9,N
1589504655.1,286047002.5,N
1589504656.0,286047002.5,N
1589504675.8,286047002.1,N
1589504695.7,286047000.6,N
1589504715.5,286047000.5,N
1589504735.3,286046999.8,N
1589504755.2,286047002.8,N
1589504775.0,286046998.4,N
1589504775.9,286046998.4,N
1589504795.8,286046998.7,N
1589504815.6,286046999.0,N
1589504835.4,286046996.5,N
1589504855.3,286046999.6,N
1589504875.1,286047000.9,N
1589504895.9,286047000.3,N
1589504915.7,286047000.8,N
1589504935.5,286047000.7,N
1589504955.4,286047000.7,N
1589504975.2,286047000.9,N
1589504995.0,286046999.9,N
1589504995.9,286046999.9,N
1589505015.8,286047000.5,N
1589505035.6,286046998.7,N
1589505055.5,286047000.5,N
1589505075.3,286047002.4,N
1589505095.1,286047011.9,Y
1589505115.9,286047002.1,P
1589505135.7,286047000.3,N
1589505155.6,286046998.2,N
1589505175.4,286047000.0,N
1589505195.2,286047002.4,N
1589505215.1,286047001.1,N
1589505216.0,286047001.1,N
1589505235.8,286047000.6,N
1589505255.6,286046998.7,N
1589505275.5,286046996.5,N
1589505295.3,286046996.8,N
1589505315.2,286046998.8,N
1589505335.9,286046998.2,N
1589505355.7,286046998.1,N
1589505375.6,286047001.1,N
1589505395.4,286046999.0,N
1589505415.3,286046996.9,N
1589505435.1,286046997.2,N
1589505436.0,286046997.2,N
1589505455.8,286046996.5,N
1589505475.7,286046997.3,N
1589505495.5,286046998.8,N
1589505515.3,286046998.1,N
1589505535.2,286047001.1,N
1589505555.0,286047002.8,N
1589505555.9,286047002.8,N
1589505575.8,286047004.0,N
1589505595.6,286047003.2,N
1589505615.4,286047002.6,N
1589505635.3,286047001.0,N
1589505655.1,286047001.5,N
1589505675.9,286047002.0,N
1589505695.7,286047002.8,N
1589505715.5,286047000.0,N
1589505735.4,286047000.3,N
1589505755.2,286047001.1,N
1589505775.1,286046999.1,N
1589505776.0,286046999.1,N
1589505795.8,286046998.6,N
1589505815.6,286046998.2,N
1589505835.5,286046998.7,N
1589505855.3,286046999.0,N
1589505875.2,286046997.6,N
1589505895.9,286046995.2,N
1589505915.7,286046997.5,N
1589505935.6,286046997.5,N
1589505955.4,286046995.0,N
1589505975.2,286046995.9,N
1589505995.1,286046997.0,N
1589505996.0,286046997.0,N
1589506015.8,286046996.8,N
1589506035.7,286046994.9,N
1589506055.5,286046995.5,N
1589506075.4,286046996.3,N
1589506095.2,286046994.9,N
1589506115.0,286046996.0,N
1589506115.9,286046996.0,N
1589506135.8,286046994.5,N
1589506155.6,286046994.6,N
1589506175.5,286046991.7,Y
1589506195.3,286046995.9,P
1589506215.1,286046996.3,P
1589506235.9,286046993.3,P
1589506255.7,286046995.0,Y
1589506275.5,286046999.8,P
1589506295.4,286046998.2,N
1589506315.2,286047000.0,N
1589506335.1,286047003.9,N
1589506336.0,286047003.9,N
1589506355.8,286047001.9,N
1589506375.6,286047000.2,N
1589506395.5,286047000.4,N
1589506415.3,286047002.2,N
1589506435.2,286047004.3,N
1589506455.9,286046999.8,N
1589506475.7,286046998.1,N
1589506495.6,286046999.7,N
1589506515.4,286046998.5,N
1589506535.2,286047000.4,N
1589506555.1,286047000.0,N
1589506556.0,286047000.0,N
1589506575.8,286047002.2,N
1589506595.7,286046999.7,N
1589506615.5,286047004.3,N
1589506635.4,286047002.4,N
1589506655.2,286047004.1,N
1589506675.0,286047001.3,N
1589506675.9,286047001.3,N
1589506695.8,286047002.6,N
1589506715.6,286046998.2,N
1589506735.5,286047000.4,N
1589506755.3,286047001.3,N
1589506775.1,286047003.8,N
1589506795.9,286047000.3,N
1589506815.7,286047002.3,N
1589506835.5,286047002.0,N
1589506855.4,286047000.2,N
1589506875.2,286047000.3,N
1589506895.1,286046998.2,N
1589506896.0,286046998.2,N
1589506915.8,286047004.1,N
1589506935.6,286047004.3,N
1589506955.5,286047002.9,N
1589506975.3,286047003.0,N
1589506995.2,286047003.2,N
1589507015.9,286047001.8,N
1589507035.7,286047002.2,N
1589507055.6,286047004.3,N
1589507075.4,286047004.1,N
1589507095.3,286047002.6,N
1589507115.1,286047003.2,N
1589507116.0,286047003.2,N
1589507135.8,286047003.2,N
1589507155.7,286047007.1,Y
1589507175.5,286047003.3,P
1589507195.4,286047003.8,P
1589507215.2,286047001.3,N
1589507235.0,286047003.5,Y
1589507235.9,286047003.5,P
1589507255.8,286047002.4,P
1589507275.6,286047002.7,P
1589507295.5,286047000.1,N
1589507315.3,286046999.7,N
1589507335.2,286046998.1,N
1589507355.9,286047000.2,N
1589507375.7,286046999.8,N
1589507395.6,286046999.0,N
1589507415.4,286047000.3,N
1589507435.2,286046998.1,N
1589507455.1,286047000.7,N
1589507456.0,286047000.7,N
1589507475.8,286046998.8,N
1589507495.7,286047002.8,N
1589507515.5,286046998.8,N
1589507535.3,286046999.4,N
1589507555.2,286046996.9,N
1589507575.0,286046996.5,N
1589507575.9,286046996.5,N
1589507595.8,286046999.5,N
1589507615.6,286047000.5,N
1589507635.4,286047000.5,N
1589507655.3,286046999.6,N
1589507675.1,286046997.0,N
1589507695.9,286046999.5,N
1589507715.7,286046996.6,N
1589507735.5,286046998.7,N
1589507755.4,286046997.0,N
1589507775.2,286046998.8,N
1589507795.0,286046997.1,N
1589507795.9,286046997.1,N
1589507815.8,286047000.9,N
1589507835.6,286046999.8,N
1589507855.5,286047001.3,N
1589507875.3,286047000.6,N
1589507895.1,286047001.0,N
1589507915.9,286047002.6,N
1589507935.7,286047002.1,N
1589507955.6,286047000.5,N
1589507975.4,286047000.0,N
1589507995.2,286047000.3,N
